Find Qianfan Jigui 01-05

NORAD ID: 60383 Int'l Des: 2024-140 Owner: YUANX Country: CN Constellation: qianfan operational
LEOCIRCULARPOLAR

Live Position

Loading 3D Globe...

About Qianfan Jigui 01-05

Description loading...

Upcoming Passes

Passes for default location (London). Set your location on the main map for personalized predictions.

Altitude History

Loading altitude history...

Two-Line Element Set

1 60383U 24140E 26104.18147683 .00000044 00000-0 49554-4 0 9991
2 60383 88.9656 286.5590 0014199 211.3040 148.7267 13.51005141 83832
Epoch: Apr 14, 2026 • Age: 5 hours

Current Status

Altitude 1069.9 km
Velocity 7.32 km/s
Sub-Earth Point -31.74°S, 130.31°E
Launch Date Aug 6, 2024
Age 1.6 years
Type internet

Technical Details

Classification Payload
Mass 267.00 kg
Dry Mass 267.00 kg
Total Mass 267.00 kg
Length 0.30 m
Diameter 3.00 m
Span 10.00 m
Shape Box+pan
Manufacturer SECM
Bus Type Qianfan
Phase Status In Orbit
Owner/State YUANX/CN

Most Searched